Regional Weather Roundup
Issued by NWS

Home | Current Version | Previous Version | Text Only | Print | Product List | Glossary Off
Versions: 1 2 3 4 5 6 7 8 9 10 11 12 13 14 15 16 17 18 19 20 21 22 23 24 25 26 27 28 29 30 31 32 33 34 35 36 37 38 39 40 41 42 43 44 45 46 47 48 49 50

000
ASUS43 KMPX 280701
RWRMN
WEATHER ROUNDUP FOR MINNESOTA
NATIONAL WEATHER SERVICE TWIN CITIES/CHANHASSEN MN
200 AM CDT FRI AUG 28 2015


NOTE: "FAIR" INDICATES FEW OR NO CLOUDS BELOW 12,000 FEET WITH NO
SIGNIFICANT WEATHER AND/OR OBSTRUCTIONS TO VISIBILITY. N/A MEANS
CURRENT SKY AND/OR WEATHER CONDITIONS ARE NOT AVAILABLE.

MNZ060>063-068>070-280800-
   Twin Cities Metro

CITY           SKY/WX    TMP DP  RH WIND       PRES   REMARKS
TWIN CITIES    CLOUDY    66  60  81 S7        30.01S
ST PAUL        CLOUDY    63  60  90 SE5       30.02R
CRYSTAL        MOCLDY    66  60  81 S9        29.99S
BLAINE         MOCLDY    66  61  82 S9        30.00S
LAKEVILLE      CLOUDY    63  61  94 S7        30.01F
EDEN PRAIRIE   MOCLDY    65  60  84 S9        29.99F
SOUTH ST PAUL  CLOUDY    65  59  82 S3        30.01S
LAKE ELMO      FAIR      61  59  94 S7        30.03R
$$
MNZ001>005-007-008-013>017-022>024-027-028-280800-
   Northwest Minnesota

CITY           SKY/WX    TMP DP  RH WIND       PRES   REMARKS
BEMIDJI        CLEAR     62  62  98 CALM      29.92F
HALLOCK        CLEAR     61  59  94 S7        29.85R
ROSEAU         CLEAR     61  54  77 S5        29.87S HAZE
WARROAD        CLEAR     61  57  88 S3        29.88R
THIEF RVR FALL CLEAR    N/A N/A N/A S6        29.88S
CROOKSTON      CLEAR     64  64 100 S7        29.88S
FOSSTON        MOCLDY    61  61 100 CALM      29.91F
DETROIT LAKES  CLEAR     63  63 100 S6        29.93F
MOORHEAD       CLEAR     64  63  94 S7        29.90S
PARK RAPIDS    CLOUDY    64  62  93 S8        29.94S
MAHNOMEN       FAIR      64  63  96 S3        29.90F
$$
MNZ006-009>011-018-025>026-280800-
   North Central Minnesota

CITY           SKY/WX    TMP DP  RH WIND       PRES   REMARKS
BAUDETTE       CLEAR     61  60  97 S6        29.88F
FLAG ISLAND    PTCLDY    64  63  94 CALM      29.86S FOG
INTL FALLS     CLOUDY    62  60  93 CALM      29.91S
WASKISH        PTCLDY    64  63  94 S3        29.90F
BIG FORK       FOG       59  57  94 CALM      29.94S VSB 3/4
LONGVILLE      PTCLDY    57  57 100 CALM      29.94F
GRAND RAPIDS     N/A     61  57  88 S5        29.95S
CRANE LAKE     CLOUDY    59  57  94 S3        29.95S
ORR            CLEAR     61  55  82 CALM      29.92F
COOK           CLEAR     61  59  94 CALM      29.95S
WALKER         PTSUNNY   63  62  97 S6        29.93S
$$
MNZ012-019>021-037-280800-
   Northeast Minnesota

CITY           SKY/WX    TMP DP  RH WIND       PRES   REMARKS
DULUTH         CLEAR     59  54  83 S5        29.98S
ELY            MOCLDY    61  55  82 S3        29.96F
HIBBING        FOG       54  53  97 CALM      29.96S VSB 1/2
EVELETH        PTCLDY    59  55  88 CALM      29.98S
DULUTH HARBOR  CLEAR     55  52  88 CALM      29.98S
TWO HARBORS    CLOUDY    63  57  82 CALM      29.96S
SILVER BAY     MOCLDY    57  54  88 CALM      29.96S
GRAND MARAIS     N/A     53  50  89 CALM      29.96F
G MARAIS ARPRT CLOUDY    54  46  76 CALM      30.00F
$$
MNZ029>031-032-039>041-046>048-054>057-064-280800-
   West Central Minnesota

CITY           SKY/WX    TMP DP  RH WIND       PRES   REMARKS
FERGUS FALLS   PTCLDY    64  64 100 S8        29.93R
WHEATON        CLEAR     57  57 100 SE7       29.95S
MORRIS         CLEAR     63  63 100 SE7       29.94F FOG
ALEXANDRIA     CLOUDY    63  63 100 S7        29.98R FOG
ELBOW LAKE     FAIR      63  63  99 S9        29.94F
WADENA         FOG       63  63 100 S5        29.94S VSB 1/2
GLENWOOD       CLEAR     63  61  94 SE6       29.98S
APPLETON       PTCLDY    64  63  94 SE6       29.95R
BENSON         PTCLDY    63  61  94 S8        29.96S
ORTONVILLE     CLEAR     63  61  94 CALM      29.95S FOG
MADISON        PTCLDY    63  61  94 S6        29.94F
WILLMAR        FAIR      63  61  94 SE6       29.98F
$$
MNZ033>034-036-042>043-049>051-058-059-280800-
   Central Minnesota

CITY           SKY/WX    TMP DP  RH WIND       PRES   REMARKS
ST CLOUD       PTCLDY    60  59  96 S7        29.99S
SAUK CENTRE    FAIR      60  59  99 S3        29.98S
PAYNESVILLE    PTCLDY    62  60  93 SE9       29.98F
AITKIN         CLOUDY    66  61  82 S7        29.95S
PINE RIVER     MOCLDY    59  59 100 CALM      29.98S FOG
BRAINERD       CLOUDY    65  61  87 S9        29.97R
STAPLES        CLOUDY    63  61  94 S8        29.96R
LONG PRAIRIE   FAIR      59  59 100 S6        29.98S
LITTLE FALLS   PTCLDY    61  59  94 SE3       29.97F
LITCHFIELD     MOCLDY    63  63 100 CALM      30.00S
BUFFALO        MOCLDY    63  58  85 S6        30.01S
MAPLE LAKE     PTCLDY    62  60  95 S3        30.01S
$$
MNZ037-044-045-052-053-280800-
   East Central Minnesota

CITY           SKY/WX    TMP DP  RH WIND       PRES   REMARKS
PRINCETON      PTCLDY    64  59  82 S6        30.00R
MORA           CLEAR     55  55 100 CALM      30.00F
CAMBRIDGE      PTCLDY    63  54  72 S5        29.98S
RUSH CITY      CLOUDY    59  57  91 S5        30.00S
MOOSE LAKE     CLOUDY    63  59  88 S3        29.96F
HINCKLEY       FAIR      55  55 100 CALM      29.99S
CLOQUET        CLOUDY    59  52  77 S3        29.98S
MCGREGOR       CLEAR     61  59  94 S3        29.96F
$$
MNZ071>073-080-081-089-090-097-098-280800-
   Southwest Minnesota

CITY           SKY/WX    TMP DP  RH WIND       PRES   REMARKS
MONTEVIDEO     MOCLDY    63  63 100 S7        29.97F
GRANITE FALLS  CLOUDY    62  61  97 CALM      29.98F
CANBY          MOCLDY    63  62  95 SE6       29.95F FOG
MARSHALL       CLOUDY    64  59  82 S5        29.98S
REDWOOD FALLS  CLOUDY    63  61  93 CALM      29.97F
OLIVIA         CLOUDY    59  55  88 SE3       29.97F
PIPESTONE      CLOUDY    64  63  94 SE9       29.96F
WINDOM         LGT RAIN  64  63  94 SE9       29.98F
WORTHINGTON    CLOUDY    63  59  88 S15G22    29.98F
JACKSON        LGT SNOW  63  63 100 S14       30.01F
TRACY          CLOUDY    65  64  94 SW9       29.97F
SLAYTON        LGT RAIN  63  63 100 S10       29.98F
$$
MNZ065>067-074>077-082>085-091>093-280800-
   South Central Minnesota

CITY           SKY/WX    TMP DP  RH WIND       PRES   REMARKS
MANKATO        CLOUDY    64  59  82 S12G17    29.99F
NEW ULM        CLOUDY    64  63  94 SE8       29.98S
ST JAMES       LGT RAIN  66  64  94 S15G21    29.99R
FAIRMONT       CLOUDY    63  57  82 S5        30.00F
GLENCOE        CLOUDY    64  62  93 SE3       29.99F
FARIBAULT      CLOUDY    64  61  88 S8        30.03F
OWATONNA       LGT RAIN  64  59  82 S13       30.03F
WASECA         CLOUDY    63  59  88 MISG      30.04F
ALBERT LEA     LGT RAIN  63  63 100 S10G17    30.05F
$$
MNZ078>079-086>088-094>096-280800-
   Southeast Minnesota

CITY           SKY/WX    TMP DP  RH WIND       PRES   REMARKS
ROCHESTER      CLOUDY    63  59  87 S14       30.07R
RED WING       CLOUDY    66  59  77 CALM      30.03R
STANTON        CLOUDY    65  60  82 S6        30.01F
DODGE CENTER   CLOUDY    63  59  88 S14G22    30.05S
WINONA         CLOUDY    66  59  77 SE5       30.04S
AUSTIN         CLOUDY    63  61  94 S9        30.07F
PRESTON        CLOUDY    62  57  86 SW8       30.09R
$$
ABBREVIATIONS USED IN REMARKS
   TC - TEMPERATURES IN CELSIUS
  WCI - WIND CHILL INDEX
   HX - HEAT INDEX
  VSB - VISIBILITY
$$


USA.gov is the U.S. government's official web portal to all federal, state and local government web resources and services.